Hourly Weather Centreville

Today, 13 June, Sunday

Time Temperature Precipitation Wind Pressure Humidity
00:00 +19°C° 0 mm 1 mps 750 mmHg 92%
01:00 +19°C° 0 mm 1 mps 750 mmHg 95%
02:00 +19°C° 0 mm 1 mps 750 mmHg 95%
03:00 +18°C° 0 mm 1 mps 750 mmHg 95%
04:00 +18°C° 0 mm 1 mps 750 mmHg 95%
05:00 +19°C° 0 mm 1 mps 750 mmHg 90%
06:00 +19°C° 0 mm 2 mps 751 mmHg 86%
07:00 +20°C° 0 mm 2 mps 751 mmHg 81%
08:00 +23°C° 0 mm 2 mps 751 mmHg 75%
09:00 +25°C° 0 mm 2 mps 751 mmHg 69%
10:00 +27°C° 0 mm 2 mps 750 mmHg 62%
11:00 +28°C° 0 mm 2 mps 750 mmHg 59%
12:00 +29°C° 0 mm 2 mps 750 mmHg 55%
13:00 +31°C° 0 mm 2 mps 749 mmHg 52%
14:00 +31°C° 0 mm 2 mps 749 mmHg 53%
15:00 +31°C° 0 mm 2 mps 748 mmHg 54%
16:00 +31°C° 0 mm 2 mps 748 mmHg 54%
17:00 +28°C° 1.3 mm 2 mps 748 mmHg 66%
18:00 +25°C° 1.3 mm 1 mps 748 mmHg 78%
19:00 +23°C° 1.3 mm 1 mps 749 mmHg 90%
20:00 +22°C° 1.1 mm 1 mps 749 mmHg 92%
21:00 +21°C° 1.1 mm 1 mps 749 mmHg 95%
22:00 +20°C° 1.1 mm 2 mps 749 mmHg 97%
23:00 +19°C° 0.7 mm 2 mps 749 mmHg 97%

Tomorrow, 14 June, Monday

Time Temperature Precipitation Wind Pressure Humidity
00:00 +19°C° 0.7 mm 2 mps 749 mmHg 98%
01:00 +19°C° 0.7 mm 3 mps 749 mmHg 98%
02:00 +19°C° 0 mm 2 mps 749 mmHg 98%
03:00 +18°C° 0 mm 2 mps 749 mmHg 98%
04:00 +19°C° 0 mm 1 mps 748 mmHg 99%
05:00 +20°C° 0 mm 1 mps 749 mmHg 98%
06:00 +21°C° 0 mm 1 mps 749 mmHg 96%
07:00 +22°C° 0 mm 1 mps 749 mmHg 95%
08:00 +24°C° 0 mm 1 mps 749 mmHg 86%
09:00 +26°C° 0 mm 1 mps 749 mmHg 77%
10:00 +27°C° 0 mm 1 mps 749 mmHg 68%
11:00 +29°C° 0.1 mm 1 mps 749 mmHg 61%
12:00 +30°C° 0.1 mm 1 mps 748 mmHg 54%
13:00 +31°C° 0.1 mm 1 mps 748 mmHg 46%
14:00 +31°C° 0 mm 1 mps 747 mmHg 47%
15:00 +31°C° 0 mm 1 mps 747 mmHg 47%
16:00 +31°C° 0 mm 1 mps 746 mmHg 47%
17:00 +30°C° 0 mm 1 mps 746 mmHg 55%
18:00 +28°C° 0 mm 1 mps 746 mmHg 62%
19:00 +27°C° 0 mm 1 mps 746 mmHg 70%
20:00 +25°C° 1 mm 1 mps 747 mmHg 78%
21:00 +23°C° 1 mm 2 mps 747 mmHg 85%
22:00 +20°C° 1 mm 2 mps 748 mmHg 93%
23:00 +19°C° 0.1 mm 2 mps 748 mmHg 94%

Day after tomorrow, 15 June, Tuesday

Time Temperature Precipitation Wind Pressure Humidity
00:00 +19°C° 0.1 mm 2 mps 748 mmHg 94%
01:00 +18°C° 0.1 mm 2 mps 748 mmHg 95%
02:00 +18°C° 0 mm 2 mps 748 mmHg 94%
03:00 +18°C° 0 mm 3 mps 748 mmHg 94%
04:00 +17°C° 0 mm 3 mps 748 mmHg 94%
05:00 +18°C° 0 mm 3 mps 749 mmHg 90%
06:00 +18°C° 0 mm 3 mps 749 mmHg 86%
07:00 +19°C° 0 mm 3 mps 749 mmHg 82%
08:00 +20°C° 0 mm 4 mps 749 mmHg 72%
09:00 +22°C° 0 mm 4 mps 750 mmHg 63%
10:00 +25°C° 0 mm 4 mps 750 mmHg 54%
11:00 +26°C° 0 mm 4 mps 750 mmHg 50%
12:00 +27°C° 0 mm 4 mps 749 mmHg 46%
13:00 +28°C° 0 mm 4 mps 749 mmHg 41%
14:00 +28°C° 0 mm 4 mps 749 mmHg 43%
15:00 +28°C° 0 mm 3 mps 749 mmHg 44%
16:00 +28°C° 0 mm 3 mps 749 mmHg 46%
17:00 +26°C° 0 mm 3 mps 749 mmHg 53%
18:00 +24°C° 0 mm 2 mps 749 mmHg 60%
19:00 +23°C° 0 mm 2 mps 749 mmHg 67%
20:00 +21°C° 0 mm 2 mps 750 mmHg 69%
21:00 +19°C° 0 mm 2 mps 750 mmHg 72%
22:00 +18°C° 0 mm 2 mps 750 mmHg 75%
23:00 +18°C° 0 mm 2 mps 750 mmHg 75%

16 June, Wednesday

Time Temperature Precipitation Wind Pressure Humidity
00:00 +17°C° 0 mm 2 mps 750 mmHg 76%
01:00 +17°C° 0 mm 2 mps 750 mmHg 77%
02:00 +16°C° 0 mm 2 mps 750 mmHg 79%
03:00 +16°C° 0 mm 2 mps 750 mmHg 80%
04:00 +15°C° 0 mm 2 mps 750 mmHg 81%
05:00 +17°C° 0 mm 2 mps 751 mmHg 77%
06:00 +18°C° 0 mm 2 mps 751 mmHg 73%
07:00 +19°C° 0 mm 3 mps 751 mmHg 70%
08:00 +20°C° 0 mm 3 mps 751 mmHg 62%
09:00 +22°C° 0 mm 3 mps 752 mmHg 55%
10:00 +23°C° 0 mm 4 mps 752 mmHg 48%
11:00 +25°C° 0 mm 4 mps 751 mmHg 44%
12:00 +26°C° 0 mm 4 mps 751 mmHg 40%
13:00 +26°C° 0 mm 4 mps 751 mmHg 37%
14:00 +26°C° 0 mm 4 mps 751 mmHg 36%
15:00 +26°C° 0 mm 3 mps 751 mmHg 36%
16:00 +26°C° 0 mm 3 mps 751 mmHg 35%
17:00 +24°C° 0 mm 2 mps 751 mmHg 44%
18:00 +21°C° 0 mm 2 mps 751 mmHg 52%
19:00 +21°C° 0 mm 1 mps 751 mmHg 60%
20:00 +19°C° 0 mm 1 mps 752 mmHg 61%
21:00 +18°C° 0 mm 1 mps 752 mmHg 62%
22:00 +16°C° 0 mm 2 mps 752 mmHg 63%
23:00 +15°C° 0 mm 2 mps 752 mmHg 64%

17 June, Thursday

Time Temperature Precipitation Wind Pressure Humidity
00:00 +15°C° 0 mm 2 mps 752 mmHg 65%
01:00 +14°C° 0 mm 2 mps 752 mmHg 65%
02:00 +13°C° 0 mm 2 mps 752 mmHg 67%
03:00 +13°C° 0 mm 2 mps 752 mmHg 69%
04:00 +12°C° 0 mm 2 mps 752 mmHg 70%
05:00 +14°C° 0 mm 2 mps 753 mmHg 66%
06:00 +15°C° 0 mm 2 mps 753 mmHg 63%
07:00 +16°C° 0 mm 2 mps 754 mmHg 59%
08:00 +18°C° 0 mm 2 mps 754 mmHg 52%
09:00 +20°C° 0 mm 2 mps 754 mmHg 45%
10:00 +22°C° 0 mm 3 mps 754 mmHg 39%
11:00 +24°C° 0 mm 3 mps 754 mmHg 36%
12:00 +25°C° 0 mm 3 mps 754 mmHg 33%
13:00 +25°C° 0 mm 3 mps 753 mmHg 31%
14:00 +25°C° 0 mm 3 mps 753 mmHg 32%
15:00 +26°C° 0 mm 2 mps 753 mmHg 32%
16:00 +26°C° 0 mm 2 mps 753 mmHg 33%
17:00 +24°C° 0 mm 2 mps 753 mmHg 42%
18:00 +22°C° 0 mm 1 mps 753 mmHg 51%
19:00 +20°C° 0 mm 1 mps 753 mmHg 60%
20:00 +19°C° 0 mm 1 mps 753 mmHg 61%
21:00 +18°C° 0 mm 1 mps 753 mmHg 61%
22:00 +16°C° 0 mm 1 mps 753 mmHg 61%
23:00 +15°C° 0 mm 1 mps 754 mmHg 62%

18 June, Friday

Time Temperature Precipitation Wind Pressure Humidity
00:00 +15°C° 0 mm 1 mps 754 mmHg 63%
01:00 +14°C° 0 mm 2 mps 754 mmHg 65%
02:00 +14°C° 0 mm 2 mps 754 mmHg 67%
03:00 +14°C° 0 mm 2 mps 754 mmHg 69%
04:00 +13°C° 0 mm 2 mps 753 mmHg 71%
05:00 +15°C° 0 mm 2 mps 753 mmHg 71%
06:00 +16°C° 0 mm 2 mps 753 mmHg 72%
07:00 +18°C° 0 mm 3 mps 753 mmHg 73%
08:00 +20°C° 0 mm 3 mps 753 mmHg 65%
09:00 +23°C° 0 mm 4 mps 752 mmHg 58%
10:00 +27°C° 0 mm 4 mps 752 mmHg 50%
11:00 +28°C° 0 mm 4 mps 751 mmHg 47%
12:00 +30°C° 0 mm 4 mps 751 mmHg 44%
13:00 +33°C° 0 mm 5 mps 750 mmHg 40%
14:00 +33°C° 0 mm 4 mps 750 mmHg 39%
15:00 +34°C° 0 mm 4 mps 749 mmHg 37%
16:00 +34°C° 0 mm 4 mps 748 mmHg 35%
17:00 +33°C° 0 mm 4 mps 748 mmHg 43%
18:00 +30°C° 0 mm 3 mps 748 mmHg 51%
19:00 +28°C° 0 mm 3 mps 748 mmHg 58%
20:00 +27°C° 0 mm 4 mps 748 mmHg 59%
21:00 +27°C° 0 mm 4 mps 748 mmHg 59%
22:00 +27°C° 0 mm 5 mps 748 mmHg 60%
23:00 +26°C° 0 mm 4 mps 748 mmHg 63%
Show more

We Need Your Consent

Meteoprog and our Service Providers may store and access personal data such as cookies, device identifiers or other similar technologies on your device and process such data to personalise content and ads, as well as provide social media features and to analyse the traffic.

  • Store and/or access information on your device

    Cookies, device identifiers or other information can be stored or accessed on your device for the purposes indicated above.

  • Personalised ads and content, ad and content measurement, audience insights, and products development

    Ads and content can be personalised based on a profile. More data can be added to better personalise ads and content. Ad and content performance can be measured. Insights about the audience who saw the ads and content can be derived. Such data can be used to develop or improve user’s experience, systems and software.

By clicking ‘I Agree’ you will allow the use of indicated cookies, device identifiers, web beacons or other similar technologies. Your settings can be changed in the browser on your device.

For certain purposes, legitimate interests may be relied on, rather than consent. You can read more about this in our Privacy and Cookie Policy.